QPF
0.05 0.06 0.07 0.06 0.07 0.06 0.07 0.07 0.07 0.05 0.05 0.05 0.03 0.03 0.04 0.04 0.05 0.04 0.06 0.04 0.03 0.02 0.02 0.01 0.01 0.01 0.02 0.02 0.03 0.06 0.09 0.09 0.05 0.03 0.04 0.04 0.04 0.05
0.06 0.08 0.08 0.06 0.06 0.06 0.05 0.05 0.06 0.05 0.05 0.04 0.04 0.04 0.04 0.03 0.05 0.04 0.05 0.04 0.03 0.02 0.02 0.02 0.01 0.01 0.01 0.02 0.01 0.02 0.03 0.05 0.07 0.05 0.04 0.03 0.03 0.03
0.06 0.07 0.07 0.07 0.07 0.05 0.05 0.04 0.04 0.04 0.04 0.03 0.04 0.04 0.04 0.03 0.03 0.04 0.05 0.05 0.04 0.04 0.04 0.03 0.03 0.02 0.01 0.02 0.01 0.02 0.02 0.02 0.03 0.04 0.04 0.04 0.03 0.03
0.06 0.07 0.07 0.08 0.09 0.07 0.05 0.03 0.03 0.03 0.03 0.03 0.03 0.02 0.03 0.05 0.04 0.05 0.03 0.03 0.04 0.05 0.04 0.04 0.03 0.02 0.01 0.01 0.00 0.01 0.01 0.01 0.01 0.02 0.02 0.03 0.04 0.04
0.06 0.07 0.07 0.08 0.09 0.08 0.07 0.05 0.04 0.02 0.04 0.03 0.03 0.04 0.04 0.04 0.05 0.04 0.04 0.04 0.02 0.02 0.03 0.03 0.03 0.02 0.01 0.01 0.01 0.00 0.00 0.01 0.01 0.01 0.02 0.02 0.03 0.04
0.09 0.08 0.08 0.08 0.08 0.09 0.09 0.09 0.07 0.05 0.05 0.04 0.04 0.03 0.03 0.04 0.04 0.05 0.05 0.04 0.03 0.02 0.03 0.03 0.02 0.02 0.02 0.01 0.01 0.01 0.01 0.01 0.01 0.01 0.01 0.01 0.01 0.02
0.09 0.10 0.10 0.10 0.10 0.10 0.09 0.10 0.09 0.07 0.05 0.04 0.04 0.04 0.03 0.03 0.03 0.03 0.03 0.04 0.04 0.03 0.04 0.04 0.04 0.03 0.03 0.02 0.01 0.01 0.01 0.01 0.01 0.01 0.01 0.01 0.01 0.01
0.06 0.08 0.09 0.11 0.11 0.11 0.10 0.09 0.08 0.07 0.07 0.06 0.04 0.03 0.03 0.03 0.03 0.03 0.03 0.03 0.03 0.03 0.04 0.04 0.05 0.06 0.05 0.03 0.02 0.02 0.02 0.01 0.01 0.01 0.01 0.01 0.01 0.01
0.03 0.04 0.05 0.05 0.07 0.08 0.08 0.08 0.07 0.07 0.06 0.06 0.05 0.05 0.04 0.03 0.04 0.04 0.05 0.05 0.04 0.04 0.05 0.04 0.04 0.06 0.05 0.04 0.03 0.01 0.01 0.01 0.01 0.01 0.01 0.01 0.01 0.01
0.03 0.03 0.04 0.04 0.05 0.05 0.05 0.05 0.04 0.04 0.04 0.04 0.04 0.04 0.04 0.03 0.04 0.04 0.04 0.04 0.03 0.03 0.04 0.04 0.04 0.04 0.04 0.04 0.03 0.02 0.01 0.01 0.01 0.00 0.00 0.00 0.01 0.01
0.02 0.02 0.02 0.03 0.04 0.03 0.03 0.03 0.04 0.04 0.02 0.02 0.02 0.02 0.02 0.02 0.02 0.02 0.03 0.03 0.03 0.03 0.04 0.04 0.03 0.03 0.04 0.04 0.03 0.02 0.01 0.00 0.00 0.00 0.00 0.00 0.00 0.01
0.01 0.01 0.01 0.01 0.02 0.03 0.02 0.03 0.03 0.03 0.03 0.02 0.02 0.02 0.02 0.02 0.02 0.03 0.04 0.04 0.03 0.03 0.03 0.03 0.03 0.04 0.03 0.03 0.03 0.03 0.02 0.01 0.01 0.01 0.00 0.00 0.01 0.01
0.01 0.01 0.01 0.01 0.01 0.01 0.02 0.03 0.03 0.03 0.02 0.02 0.02 0.03 0.03 0.04 0.05 0.04 0.04 0.03 0.03 0.03 0.03 0.03 0.03 0.04 0.03 0.02 0.02 0.03 0.03 0.03 0.02 0.02 0.01 0.01 0.01 0.02
0.02 0.02 0.02 0.01 0.01 0.01 0.03 0.03 0.03 0.03 0.03 0.02 0.01 0.01 0.02 0.03 0.04 0.04 0.04 0.03 0.03 0.02 0.03 0.04 0.04 0.04 0.04 0.04 0.03 0.03 0.04 0.04 0.04 0.03 0.03 0.03 0.02 0.01
0.02 0.02 0.03 0.02 0.02 0.02 0.02 0.02 0.02 0.02 0.02 0.02 0.02 0.01 0.01 0.02 0.02 0.03 0.03 0.04 0.03 0.02 0.02 0.03 0.03 0.04 0.05 0.05 0.04 0.04 0.04 0.06 0.06 0.05 0.05 0.05 0.04 0.03
0.01 0.01 0.02 0.02 0.02 0.02 0.02 0.02 0.02 0.02 0.03 0.03 0.02 0.01 0.02 0.02 0.03 0.03 0.03 0.03 0.03 0.02 0.02 0.02 0.03 0.04 0.05 0.05 0.05 0.05 0.05 0.07 0.07 0.05 0.05 0.04 0.04 0.04
0.01 0.01 0.01 0.01 0.02 0.02 0.02 0.02 0.03 0.03 0.03 0.03 0.03 0.02 0.02 0.02 0.03 0.03 0.04 0.04 0.03 0.02 0.02 0.02 0.03 0.03 0.04 0.05 0.06 0.06 0.06 0.06 0.07 0.07 0.07 0.05 0.04 0.04
0.03 0.02 0.02 0.02 0.03 0.03 0.04 0.04 0.05 0.05 0.04 0.05 0.05 0.04 0.04 0.03 0.02 0.02 0.03 0.03 0.03 0.03 0.03 0.03 0.04 0.05 0.05 0.06 0.07 0.07 0.07 0.07 0.08 0.08 0.09 0.09 0.06 0.04
0.06 0.05 0.04 0.04 0.05 0.04 0.05 0.06 0.06 0.05 0.05 0.05 0.05 0.05 0.05 0.04 0.04 0.04 0.04 0.03 0.03 0.03 0.04 0.04 0.05 0.06 0.06 0.05 0.05 0.06 0.07 0.07 0.07 0.07 0.06 0.07 0.07 0.06
0.05 0.04 0.04 0.04 0.04 0.04 0.04 0.05 0.05 0.04 0.04 0.05 0.05 0.04 0.04 0.04 0.04 0.04 0.04 0.04 0.04 0.04 0.04 0.05 0.05 0.05 0.05 0.05 0.06 0.06 0.06 0.05 0.06 0.06 0.07 0.07 0.07 0.06
0.05 0.05 0.04 0.04 0.04 0.05 0.04 0.04 0.04 0.05 0.05 0.06 0.06 0.05 0.04 0.04 0.03 0.03 0.03 0.03 0.03 0.04 0.05 0.05 0.05 0.05 0.06 0.06 0.05 0.05 0.06 0.07 0.07 0.07 0.08 0.09 0.08 0.06
0.05 0.05 0.04 0.04 0.04 0.05 0.05 0.04 0.04 0.04 0.05 0.06 0.06 0.04 0.04 0.04 0.03 0.03 0.03 0.03 0.03 0.04 0.05 0.05 0.06 0.06 0.06 0.06 0.05 0.05 0.07 0.08 0.09 0.08 0.06 0.05 0.05 0.06
0.04 0.04 0.04 0.04 0.04 0.04 0.05 0.04 0.04 0.04 0.04 0.05 0.04 0.04 0.03 0.04 0.04 0.03 0.03 0.04 0.04 0.04 0.05 0.06 0.06 0.07 0.07 0.07 0.07 0.07 0.08 0.09 0.09 0.07 0.05 0.04 0.03 0.04
MSLP
1016.03 1016.13 1016.26 1016.37 1016.44 1016.42 1016.29 1016.04 1015.68 1015.22 1014.72 1014.20 1013.70 1013.26 1012.88 1012.57 1012.34 1012.17 1012.06 1012.00 1011.99 1012.03 1012.12 1012.26 1012.43 1012.63 1012.85 1013.07 1013.28 1013.48 1013.68 1013.86 1014.05 1014.25 1014.46 1014.69 1014.93 1015.17
1016.01 1016.12 1016.25 1016.38 1016.46 1016.47 1016.38 1016.17 1015.86 1015.46 1015.00 1014.51 1014.02 1013.56 1013.15 1012.78 1012.48 1012.24 1012.06 1011.95 1011.90 1011.92 1012.00 1012.14 1012.33 1012.54 1012.77 1013.00 1013.21 1013.39 1013.56 1013.70 1013.85 1013.99 1014.16 1014.34 1014.54 1014.75
1016.00 1016.14 1016.28 1016.42 1016.52 1016.55 1016.50 1016.35 1016.10 1015.77 1015.37 1014.92 1014.46 1014.00 1013.55 1013.14 1012.77 1012.45 1012.19 1011.99 1011.88 1011.84 1011.88 1012.00 1012.17 1012.38 1012.61 1012.83 1013.04 1013.21 1013.36 1013.48 1013.60 1013.72 1013.85 1014.00 1014.17 1014.36
1016.06 1016.22 1016.37 1016.52 1016.63 1016.69 1016.67 1016.57 1016.39 1016.13 1015.80 1015.41 1014.99 1014.54 1014.08 1013.63 1013.20 1012.79 1012.44 1012.15 1011.95 1011.83 1011.80 1011.86 1011.99 1012.16 1012.37 1012.57 1012.76 1012.92 1013.06 1013.17 1013.27 1013.38 1013.50 1013.65 1013.81 1013.99
1016.20 1016.38 1016.54 1016.69 1016.81 1016.88 1016.89 1016.83 1016.71 1016.51 1016.25 1015.93 1015.56 1015.15 1014.70 1014.23 1013.74 1013.28 1012.84 1012.45 1012.15 1011.93 1011.81 1011.77 1011.82 1011.93 1012.07 1012.23 1012.38 1012.52 1012.64 1012.75 1012.85 1012.97 1013.10 1013.26 1013.44 1013.63
1016.43 1016.62 1016.79 1016.93 1017.04 1017.11 1017.13 1017.10 1017.02 1016.88 1016.69 1016.43 1016.12 1015.76 1015.34 1014.87 1014.37 1013.86 1013.36 1012.89 1012.49 1012.16 1011.93 1011.78 1011.72 1011.72 1011.77 1011.85 1011.94 1012.03 1012.13 1012.23 1012.34 1012.48 1012.64 1012.82 1013.03 1013.24
1016.72 1016.92 1017.09 1017.22 1017.32 1017.37 1017.38 1017.36 1017.30 1017.20 1017.06 1016.87 1016.62 1016.31 1015.94 1015.51 1015.03 1014.50 1013.97 1013.45 1012.96 1012.54 1012.18 1011.91 1011.72 1011.59 1011.52 1011.49 1011.50 1011.53 1011.58 1011.67 1011.78 1011.93 1012.12 1012.33 1012.57 1012.82
1017.04 1017.25 1017.42 1017.54 1017.61 1017.64 1017.63 1017.60 1017.54 1017.47 1017.36 1017.22 1017.03 1016.79 1016.48 1016.10 1015.66 1015.16 1014.63 1014.08 1013.54 1013.04 1012.58 1012.19 1011.86 1011.59 1011.38 1011.23 1011.12 1011.07 1011.06 1011.11 1011.21 1011.36 1011.56 1011.80 1012.07 1012.34
1017.33 1017.56 1017.74 1017.85 1017.90 1017.90 1017.87 1017.82 1017.75 1017.68 1017.59 1017.48 1017.35 1017.16 1016.92 1016.61 1016.23 1015.78 1015.28 1014.74 1014.18 1013.63 1013.09 1012.59 1012.14 1011.73 1011.39 1011.10 1010.87 1010.72 1010.63 1010.62 1010.68 1010.82 1011.02 1011.26 1011.54 1011.81
1017.54 1017.81 1018.01 1018.12 1018.17 1018.16 1018.11 1018.03 1017.95 1017.86 1017.78 1017.69 1017.58 1017.45 1017.26 1017.02 1016.71 1016.33 1015.88 1015.38 1014.83 1014.26 1013.67 1013.10 1012.55 1012.03 1011.55 1011.14 1010.79 1010.53 1010.35 1010.27 1010.27 1010.37 1010.53 1010.76 1011.00 1011.26
1017.66 1017.98 1018.20 1018.34 1018.41 1018.40 1018.34 1018.25 1018.15 1018.05 1017.95 1017.86 1017.77 1017.66 1017.52 1017.34 1017.09 1016.78 1016.39 1015.94 1015.43 1014.87 1014.27 1013.66 1013.05 1012.44 1011.87 1011.36 1010.90 1010.54 1010.27 1010.10 1010.03 1010.06 1010.16 1010.33 1010.52 1010.73
1017.67 1018.04 1018.31 1018.49 1018.58 1018.60 1018.55 1018.46 1018.36 1018.24 1018.14 1018.04 1017.94 1017.84 1017.72 1017.57 1017.37 1017.11 1016.79 1016.40 1015.94 1015.42 1014.85 1014.23 1013.59 1012.95 1012.32 1011.73 1011.20 1010.75 1010.39 1010.13 1009.98 1009.92 1009.94 1010.02 1010.13 1010.25
1017.59 1018.00 1018.32 1018.55 1018.69 1018.74 1018.73 1018.66 1018.57 1018.45 1018.33 1018.22 1018.11 1018.00 1017.88 1017.74 1017.57 1017.36 1017.09 1016.75 1016.35 1015.89 1015.36 1014.78 1014.16 1013.51 1012.86 1012.24 1011.66 1011.14 1010.71 1010.37 1010.13 1009.97 1009.88 1009.85 1009.85 1009.86
1017.46 1017.89 1018.24 1018.52 1018.71 1018.81 1018.85 1018.82 1018.75 1018.66 1018.54 1018.42 1018.29 1018.16 1018.03 1017.89 1017.72 1017.53 1017.30 1017.01 1016.67 1016.27 1015.81 1015.29 1014.71 1014.10 1013.47 1012.85 1012.25 1011.70 1011.21 1010.79 1010.46 1010.19 1009.99 1009.83 1009.71 1009.59
1017.28 1017.71 1018.08 1018.39 1018.62 1018.79 1018.88 1018.92 1018.89 1018.83 1018.74 1018.62 1018.48 1018.34 1018.19 1018.03 1017.86 1017.68 1017.47 1017.23 1016.94 1016.60 1016.21 1015.76 1015.26 1014.71 1014.12 1013.52 1012.93 1012.36 1011.83 1011.35 1010.92 1010.55 1010.23 1009.94 1009.68 1009.44
1017.10 1017.49 1017.85 1018.17 1018.44 1018.66 1018.82 1018.92 1018.97 1018.96 1018.91 1018.82 1018.69 1018.55 1018.38 1018.21 1018.03 1017.85 1017.65 1017.44 1017.20 1016.92 1016.60 1016.22 1015.80 1015.31 1014.79 1014.23 1013.65 1013.08 1012.51 1011.98 1011.47 1011.00 1010.55 1010.14 1009.74 1009.37
1016.90 1017.24 1017.56 1017.88 1018.18 1018.44 1018.67 1018.85 1018.98 1019.04 1019.06 1019.01 1018.92 1018.79 1018.63 1018.46 1018.28 1018.09 1017.90 1017.71 1017.50 1017.27 1017.01 1016.70 1016.34 1015.92 1015.45 1014.93 1014.37 1013.79 1013.20 1012.61 1012.03 1011.46 1010.91 1010.37 1009.86 1009.37
1016.70 1016.96 1017.24 1017.54 1017.85 1018.16 1018.45 1018.72 1018.93 1019.09 1019.19 1019.22 1019.18 1019.09 1018.96 1018.79 1018.62 1018.43 1018.25 1018.07 1017.88 1017.68 1017.46 1017.19 1016.88 1016.51 1016.08 1015.59 1015.05 1014.46 1013.84 1013.20 1012.55 1011.89 1011.24 1010.60 1009.98 1009.40
1016.47 1016.67 1016.91 1017.20 1017.52 1017.87 1018.23 1018.57 1018.88 1019.14 1019.33 1019.44 1019.48 1019.44 1019.35 1019.21 1019.05 1018.87 1018.69 1018.52 1018.34 1018.16 1017.95 1017.71 1017.43 1017.08 1016.68 1016.20 1015.65 1015.05 1014.40 1013.71 1013.00 1012.27 1011.54 1010.81 1010.11 1009.44
1016.22 1016.38 1016.60 1016.88 1017.22 1017.62 1018.04 1018.46 1018.86 1019.21 1019.49 1019.69 1019.81 1019.83 1019.79 1019.69 1019.54 1019.38 1019.21 1019.03 1018.85 1018.67 1018.47 1018.24 1017.96 1017.62 1017.22 1016.74 1016.18 1015.56 1014.88 1014.15 1013.39 1012.60 1011.80 1011.01 1010.24 1009.52
1015.95 1016.12 1016.35 1016.65 1017.02 1017.46 1017.94 1018.43 1018.91 1019.34 1019.70 1019.98 1020.16 1020.25 1020.25 1020.18 1020.06 1019.91 1019.74 1019.56 1019.38 1019.19 1018.98 1018.74 1018.46 1018.11 1017.70 1017.22 1016.65 1016.01 1015.31 1014.55 1013.75 1012.92 1012.08 1011.24 1010.43 1009.66
1015.68 1015.89 1016.17 1016.52 1016.94 1017.43 1017.97 1018.52 1019.05 1019.54 1019.96 1020.29 1020.52 1020.65 1020.68 1020.64 1020.54 1020.40 1020.23 1020.05 1019.86 1019.66 1019.45 1019.20 1018.91 1018.56 1018.15 1017.66 1017.09 1016.45 1015.73 1014.96 1014.15 1013.29 1012.42 1011.56 1010.71 1009.91
1015.44 1015.74 1016.09 1016.52 1017.01 1017.56 1018.14 1018.73 1019.30 1019.82 1020.26 1020.61 1020.86 1021.01 1021.06 1021.03 1020.93 1020.80 1020.64 1020.46 1020.27 1020.06 1019.84 1019.59 1019.31 1018.96 1018.56 1018.08 1017.53 1016.90 1016.20 1015.45 1014.63 1013.78 1012.90 1012.02 1011.15 1010.31
Thickness
5712 5711 5709 5710 5711 5711 5709 5706 5698 5693 5695 5701 5703 5705 5704 5702 5701 5699 5697 5695 5694 5692 5691 5690 5688 5687 5685 5684 5683 5682 5681 5679 5677 5676 5675 5673 5672 5671
5707 5705 5704 5705 5705 5705 5704 5703 5701 5695 5691 5696 5697 5700 5699 5698 5696 5695 5693 5691 5690 5688 5687 5686 5684 5682 5681 5679 5678 5676 5675 5674 5672 5671 5670 5669 5668 5667
5702 5701 5700 5699 5698 5698 5698 5697 5696 5694 5688 5690 5693 5694 5693 5691 5690 5689 5688 5686 5685 5684 5683 5681 5680 5678 5676 5675 5673 5671 5670 5668 5667 5666 5665 5665 5664 5663
5698 5696 5695 5694 5692 5692 5691 5691 5689 5689 5686 5682 5684 5685 5685 5685 5684 5682 5682 5682 5681 5681 5679 5677 5675 5673 5672 5670 5668 5666 5665 5663 5662 5661 5661 5660 5659 5657
5693 5691 5690 5688 5685 5685 5685 5684 5683 5684 5682 5679 5678 5679 5678 5678 5676 5676 5676 5675 5676 5676 5674 5672 5670 5668 5667 5665 5663 5661 5660 5658 5657 5656 5655 5654 5653 5653
5688 5686 5685 5682 5680 5679 5679 5678 5677 5675 5675 5673 5672 5672 5671 5671 5669 5667 5666 5667 5668 5669 5668 5667 5666 5664 5662 5660 5659 5657 5655 5653 5652 5651 5649 5648 5648 5647
5682 5681 5679 5678 5676 5674 5673 5672 5671 5669 5667 5666 5665 5664 5663 5662 5661 5661 5659 5660 5661 5662 5661 5661 5661 5660 5658 5656 5654 5653 5651 5649 5647 5646 5644 5643 5642 5642
5675 5675 5674 5672 5671 5669 5667 5666 5664 5662 5660 5658 5657 5656 5657 5656 5656 5655 5653 5651 5650 5655 5654 5654 5655 5654 5654 5653 5652 5650 5648 5645 5643 5642 5640 5638 5637 5636
5670 5669 5669 5668 5666 5663 5662 5660 5658 5657 5655 5653 5652 5652 5651 5651 5649 5647 5646 5644 5644 5646 5645 5645 5648 5648 5649 5649 5648 5646 5644 5641 5639 5637 5635 5633 5632 5631
5665 5664 5662 5661 5660 5658 5657 5655 5654 5652 5651 5649 5648 5648 5647 5646 5644 5642 5640 5639 5640 5641 5641 5638 5640 5641 5643 5643 5643 5642 5639 5636 5634 5632 5630 5628 5627 5626
5660 5659 5658 5655 5653 5651 5650 5648 5647 5646 5646 5645 5644 5643 5641 5640 5638 5635 5633 5630 5630 5632 5635 5632 5633 5634 5635 5637 5637 5636 5635 5632 5630 5628 5626 5624 5622 5621
5654 5654 5652 5650 5647 5644 5643 5641 5640 5640 5639 5638 5637 5636 5636 5634 5632 5629 5627 5624 5623 5623 5627 5626 5625 5625 5625 5630 5631 5629 5628 5626 5625 5623 5622 5620 5617 5615
5647 5647 5646 5643 5641 5638 5636 5635 5634 5633 5631 5630 5630 5630 5630 5629 5627 5624 5622 5620 5618 5618 5620 5619 5617 5617 5616 5618 5621 5622 5622 5621 5619 5618 5617 5615 5613 5610
5640 5640 5639 5637 5634 5632 5630 5629 5628 5626 5625 5624 5624 5624 5623 5623 5622 5621 5619 5617 5616 5615 5614 5613 5610 5609 5608 5608 5611 5614 5615 5615 5614 5613 5612 5611 5608 5606
5633 5632 5631 5630 5628 5627 5625 5623 5621 5620 5619 5618 5618 5618 5619 5619 5617 5615 5614 5613 5612 5611 5610 5608 5606 5604 5602 5602 5603 5605 5606 5608 5609 5608 5606 5605 5603 5600
5624 5623 5623 5623 5622 5622 5621 5618 5617 5616 5615 5614 5613 5613 5613 5612 5610 5609 5607 5606 5604 5604 5605 5604 5602 5600 5597 5597 5596 5597 5598 5599 5601 5601 5600 5599 5598 5597
5617 5617 5617 5617 5617 5618 5617 5616 5614 5612 5610 5609 5608 5606 5605 5604 5604 5604 5601 5600 5598 5598 5597 5598 5597 5595 5593 5591 5590 5591 5591 5592 5593 5593 5592 5592 5592 5592
5610 5611 5612 5613 5613 5613 5612 5610 5609 5607 5606 5604 5602 5600 5599 5598 5597 5597 5595 5593 5592 5592 5591 5591 5590 5587 5586 5586 5584 5584 5585 5586 5587 5587 5586 5585 5585 5585
5603 5606 5607 5608 5609 5608 5607 5605 5603 5602 5601 5598 5597 5595 5593 5592 5590 5589 5588 5587 5586 5586 5585 5585 5583 5580 5577 5578 5580 5579 5578 5580 5580 5580 5579 5579 5579 5580
5601 5601 5602 5603 5603 5602 5602 5600 5598 5597 5595 5593 5591 5589 5587 5585 5583 5581 5580 5580 5579 5579 5578 5578 5577 5575 5572 5572 5573 5573 5572 5572 5572 5572 5572 5573 5573 5573
5596 5596 5596 5596 5597 5596 5594 5593 5591 5590 5588 5586 5584 5582 5580 5578 5576 5575 5574 5573 5572 5571 5570 5571 5571 5571 5569 5567 5565 5566 5566 5566 5566 5566 5566 5565 5565 5566
5590 5590 5590 5590 5589 5588 5587 5586 5585 5583 5581 5579 5577 5575 5574 5572 5570 5569 5568 5566 5566 5565 5565 5565 5565 5563 5561 5559 5559 5559 5559 5558 5558 5558 5558 5559 5559 5560
5585 5584 5583 5582 5582 5581 5580 5579 5578 5576 5573 5572 5570 5569 5568 5566 5565 5563 5561 5560 5559 5559 5558 5557 5557 5556 5555 5554 5553 5552 5553 5552 5552 5551 5552 5553 5553 5554